• în Republica Moldova
  • Lista ţărilor
  • Pe 7 zile
  • Temperatura apei
  • Hartă satelitară
  • Meteo pe hartă
  • Widget-uri
  • user-avatar
    Intrare

    Meteo pe oră la Quito

    Astăzi, 23 Septembrie, Sâmbătă

    Timp Temperatura Precipitaţii Vânt Presiune Umiditate
    00:00 +21°C° 0 mm 1 m/s 622 mmHg 50%
    01:00 +20°C° 0 mm 1 m/s 623 mmHg 49%
    02:00 +20°C° 0 mm 1 m/s 622 mmHg 52%
    03:00 +19°C° 0 mm 1 m/s 622 mmHg 55%
    04:00 +19°C° 0 mm 1 m/s 622 mmHg 59%
    05:00 +20°C° 0 mm 1 m/s 623 mmHg 57%
    06:00 +21°C° 0 mm 1 m/s 623 mmHg 56%
    07:00 +22°C° 0 mm 1 m/s 624 mmHg 55%
    08:00 +25°C° 0 mm 1 m/s 625 mmHg 45%
    09:00 +28°C° 0 mm 2 m/s 626 mmHg 34%
    10:00 +31°C° 0 mm 3 m/s 626 mmHg 24%
    11:00 +33°C° 0 mm 3 m/s 626 mmHg 22%
    12:00 +34°C° 0 mm 3 m/s 626 mmHg 19%
    13:00 +35°C° 0 mm 3 m/s 625 mmHg 17%
    14:00 +35°C° 0 mm 3 m/s 625 mmHg 17%
    15:00 +35°C° 0 mm 2 m/s 624 mmHg 16%
    16:00 +34°C° 0 mm 2 m/s 624 mmHg 16%
    17:00 +31°C° 0 mm 2 m/s 623 mmHg 19%
    18:00 +28°C° 0 mm 1 m/s 623 mmHg 22%
    19:00 +26°C° 0 mm 1 m/s 622 mmHg 24%
    20:00 +26°C° 0 mm 1 m/s 623 mmHg 26%
    21:00 +25°C° 0 mm 1 m/s 623 mmHg 28%
    22:00 +25°C° 0 mm 1 m/s 624 mmHg 30%
    23:00 +24°C° 0 mm 1 m/s 624 mmHg 34%

    Mâine, 24 Septembrie, Duminică

    Timp Temperatura Precipitaţii Vânt Presiune Umiditate
    00:00 +23°C° 0 mm 1 m/s 623 mmHg 39%
    01:00 +21°C° 0 mm 2 m/s 623 mmHg 44%
    02:00 +20°C° 0 mm 2 m/s 623 mmHg 51%
    03:00 +21°C° 0 mm 1 m/s 622 mmHg 57%
    04:00 +20°C° 0 mm 1 m/s 622 mmHg 63%
    05:00 +20°C° 0 mm 2 m/s 623 mmHg 61%
    06:00 +21°C° 0 mm 2 m/s 623 mmHg 58%
    07:00 +23°C° 0 mm 2 m/s 624 mmHg 55%
    08:00 +26°C° 0 mm 2 m/s 625 mmHg 44%
    09:00 +30°C° 0 mm 2 m/s 626 mmHg 33%
    10:00 +34°C° 0 mm 2 m/s 627 mmHg 22%
    11:00 +34°C° 0 mm 2 m/s 626 mmHg 20%
    12:00 +35°C° 0 mm 2 m/s 626 mmHg 18%
    13:00 +36°C° 0 mm 3 m/s 625 mmHg 15%
    14:00 +35°C° 0 mm 2 m/s 624 mmHg 16%
    15:00 +35°C° 0 mm 2 m/s 624 mmHg 16%
    16:00 +34°C° 0 mm 2 m/s 623 mmHg 17%
    17:00 +31°C° 0 mm 2 m/s 623 mmHg 20%
    18:00 +28°C° 0 mm 2 m/s 623 mmHg 23%
    19:00 +26°C° 0 mm 2 m/s 622 mmHg 26%
    20:00 +25°C° 0 mm 2 m/s 622 mmHg 29%
    21:00 +24°C° 0 mm 1 m/s 623 mmHg 31%
    22:00 +24°C° 0 mm 1 m/s 623 mmHg 34%
    23:00 +23°C° 0 mm 2 m/s 623 mmHg 40%

    Poimâine, 25 Septembrie, Luni

    Timp Temperatura Precipitaţii Vânt Presiune Umiditate
    00:00 +21°C° 0 mm 2 m/s 622 mmHg 47%
    01:00 +20°C° 0 mm 2 m/s 622 mmHg 53%
    02:00 +19°C° 0 mm 2 m/s 621 mmHg 59%
    03:00 +18°C° 0 mm 2 m/s 621 mmHg 64%
    04:00 +19°C° 0 mm 1 m/s 621 mmHg 70%
    05:00 +19°C° 0 mm 2 m/s 622 mmHg 66%
    06:00 +20°C° 0 mm 2 m/s 622 mmHg 62%
    07:00 +21°C° 0 mm 2 m/s 623 mmHg 57%
    08:00 +25°C° 0 mm 2 m/s 624 mmHg 47%
    09:00 +29°C° 0 mm 2 m/s 625 mmHg 36%
    10:00 +32°C° 0 mm 2 m/s 626 mmHg 25%
    11:00 +35°C° 0 mm 2 m/s 625 mmHg 21%
    12:00 +36°C° 0 mm 2 m/s 625 mmHg 18%
    13:00 +37°C° 0 mm 2 m/s 624 mmHg 14%
    14:00 +35°C° 0 mm 1 m/s 624 mmHg 15%
    15:00 +34°C° 0 mm 1 m/s 623 mmHg 16%
    16:00 +33°C° 0 mm 1 m/s 622 mmHg 16%
    17:00 +31°C° 0 mm 1 m/s 622 mmHg 21%
    18:00 +28°C° 0 mm 2 m/s 621 mmHg 25%
    19:00 +26°C° 0 mm 2 m/s 621 mmHg 29%
    20:00 +25°C° 0 mm 3 m/s 621 mmHg 35%
    21:00 +24°C° 0 mm 3 m/s 621 mmHg 40%
    22:00 +22°C° 0 mm 3 m/s 622 mmHg 46%
    23:00 +21°C° 0 mm 3 m/s 621 mmHg 52%

    26 Septembrie, Marţi

    Timp Temperatura Precipitaţii Vânt Presiune Umiditate
    00:00 +20°C° 0 mm 3 m/s 621 mmHg 58%
    01:00 +19°C° 0 mm 3 m/s 621 mmHg 64%
    02:00 +19°C° 0 mm 2 m/s 620 mmHg 67%
    03:00 +18°C° 0 mm 2 m/s 620 mmHg 70%
    04:00 +17°C° 0 mm 2 m/s 620 mmHg 73%
    05:00 +18°C° 0 mm 2 m/s 621 mmHg 69%
    06:00 +19°C° 0 mm 2 m/s 622 mmHg 65%
    07:00 +20°C° 0 mm 2 m/s 623 mmHg 62%
    08:00 +24°C° 0 mm 2 m/s 623 mmHg 49%
    09:00 +28°C° 0 mm 2 m/s 624 mmHg 35%
    10:00 +31°C° 0 mm 2 m/s 625 mmHg 22%
    11:00 +34°C° 0 mm 2 m/s 625 mmHg 20%
    12:00 +36°C° 0 mm 1 m/s 625 mmHg 17%
    13:00 +39°C° 0 mm 1 m/s 624 mmHg 14%
    14:00 +36°C° 0 mm 1 m/s 623 mmHg 16%
    15:00 +34°C° 0 mm 1 m/s 622 mmHg 18%
    16:00 +32°C° 0 mm 2 m/s 621 mmHg 20%
    17:00 +30°C° 0 mm 2 m/s 621 mmHg 25%
    18:00 +28°C° 0 mm 2 m/s 621 mmHg 31%
    19:00 +26°C° 0 mm 2 m/s 621 mmHg 36%
    20:00 +25°C° 0 mm 3 m/s 621 mmHg 39%
    21:00 +24°C° 0 mm 3 m/s 621 mmHg 43%
    22:00 +22°C° 0 mm 3 m/s 622 mmHg 46%
    23:00 +21°C° 0 mm 3 m/s 621 mmHg 51%

    27 Septembrie, Miercuri

    Timp Temperatura Precipitaţii Vânt Presiune Umiditate
    00:00 +20°C° 0 mm 3 m/s 621 mmHg 56%
    01:00 +20°C° 0 mm 3 m/s 621 mmHg 61%
    02:00 +19°C° 0 mm 2 m/s 621 mmHg 64%
    03:00 +18°C° 0 mm 2 m/s 621 mmHg 67%
    04:00 +18°C° 0 mm 2 m/s 620 mmHg 71%
    05:00 +18°C° 0 mm 2 m/s 621 mmHg 67%
    06:00 +20°C° 0 mm 1 m/s 622 mmHg 64%
    07:00 +21°C° 0 mm 1 m/s 623 mmHg 61%
    08:00 +25°C° 0 mm 1 m/s 624 mmHg 47%
    09:00 +29°C° 0 mm 1 m/s 625 mmHg 34%
    10:00 +33°C° 0 mm 1 m/s 626 mmHg 20%
    11:00 +34°C° 0 mm 1 m/s 626 mmHg 19%
    12:00 +36°C° 0 mm 1 m/s 625 mmHg 18%
    13:00 +37°C° 0 mm 1 m/s 625 mmHg 16%
    14:00 +35°C° 0 mm 1 m/s 624 mmHg 18%
    15:00 +33°C° 0 mm 1 m/s 623 mmHg 20%
    16:00 +31°C° 0 mm 2 m/s 622 mmHg 22%
    17:00 +29°C° 0 mm 2 m/s 622 mmHg 26%
    18:00 +28°C° 0 mm 2 m/s 622 mmHg 29%
    19:00 +26°C° 0 mm 2 m/s 622 mmHg 33%
    20:00 +25°C° 0 mm 2 m/s 622 mmHg 38%
    21:00 +24°C° 0 mm 2 m/s 622 mmHg 43%
    22:00 +23°C° 0 mm 2 m/s 622 mmHg 49%
    23:00 +21°C° 0 mm 2 m/s 622 mmHg 52%

    28 Septembrie, Joi

    Timp Temperatura Precipitaţii Vânt Presiune Umiditate
    00:00 +20°C° 0 mm 2 m/s 622 mmHg 56%
    01:00 +20°C° 0 mm 1 m/s 621 mmHg 60%
    02:00 +20°C° 0 mm 1 m/s 621 mmHg 62%
    03:00 +19°C° 0 mm 1 m/s 621 mmHg 64%
    04:00 +19°C° 0 mm 1 m/s 621 mmHg 66%
    05:00 +20°C° 0 mm 1 m/s 622 mmHg 62%
    06:00 +21°C° 0 mm 1 m/s 623 mmHg 58%
    07:00 +21°C° 0 mm 2 m/s 624 mmHg 54%
    08:00 +26°C° 0 mm 1 m/s 625 mmHg 45%
    09:00 +29°C° 0 mm 1 m/s 626 mmHg 36%
    10:00 +33°C° 0 mm 1 m/s 627 mmHg 27%
    11:00 +32°C° 0 mm 1 m/s 626 mmHg 27%
    12:00 +32°C° 0 mm 1 m/s 625 mmHg 27%
    13:00 +31°C° 0 mm 2 m/s 624 mmHg 27%
    14:00 +31°C° 0 mm 2 m/s 624 mmHg 28%
    15:00 +30°C° 0 mm 2 m/s 624 mmHg 29%
    16:00 +30°C° 0 mm 2 m/s 623 mmHg 30%
    17:00 +28°C° 0,2 mm 2 m/s 623 mmHg 37%
    18:00 +26°C° 0,2 mm 2 m/s 623 mmHg 43%
    19:00 +24°C° 0,2 mm 2 m/s 623 mmHg 49%
    20:00 +23°C° 0,8 mm 2 m/s 623 mmHg 57%
    21:00 +21°C° 0,8 mm 2 m/s 623 mmHg 65%
    22:00 +19°C° 0,8 mm 2 m/s 623 mmHg 73%
    23:00 +19°C° 0,2 mm 2 m/s 623 mmHg 75%
    Arată mai mult